Tindouf, Algeria

5:06 AM CET en Diciembre 16, 2018 (GMT +0100)
Tindouf

Tiempo Historia de DAOF - Mayo, 2018

Change the Weather History Date:

Jueves, Mayo 17, 2018

  Actual Average Record
Temperature  
Temperatura media 71 ° F -  
Temperatura máxima 85 ° F - - ()
Temperatura mínima 57 ° F - - ()
Cooling Degree Days 6    
Growing Degree Days 21 (Base 50)    
Moisture  
Punto de rocío 44 ° F    
Average Humidity 43    
Maximum Humidity 77    
Minimum Humidity 12    
Precipitación  
Precipitación 0.00 pul - - ()
Presión al nivel del mar  
Presión al nivel del mar 29.76 pul    
Viento  
Velocidad del viento 20 mph ()    
Velocidad máxima del viento 31 mph    
Max Gust Speed -    
Visibilidad 5.3 Millas    
Eventos      
T = Trace of Precipitation, MM = Missing Value Source: Averaged Metar Reports

Daily Weather History Graph

Daily Weather History Graph

Search for Another Location

Airport or City:

Astronomía

May. 17, 2018 Salida Puesta
Hora real 6:42 AM CET 8:15 PM CET
Crepúsculo civil 6:16 AM CET 8:41 PM CET
Crepúsculo náutico 5:46 AM CET 9:11 PM CET
Crepúsculo astronómico 5:14 AM CET 9:43 PM CET
Luna 8:34 AM CET (5/17) 10:33 PM CET (5/17)
Horas de luz 14h 24m
Horas de luz
13h 33m
Creciente, 5% of the Moon is Illuminated
May 17
Creciente
May 22
Cuarto creciente
May 29
Luna llena
Jun 6
Cuarto menguante
Jun 13
Nueva

Hourly Weather History & Observations

Hora (CET) Temp. Punto de rocío Humedad Presión Visibilidad Wind Dir Velocidad del viento Velocidad de ráfagas Precip Eventos Condiciones
12:00 AM 60.8 ° F 48.2 ° F 63% 29.83 pul 5.0 mi Oeste 25.3 mph - N/A   Desconocido
1:00 AM 60 ° F 48 ° F 54% 29.77 pul 5 mi Oeste 25.3 mph - -  
1:00 AM 60.8 ° F 48.2 ° F 63% 29.80 pul 5.0 mi Oeste 25.3 mph - N/A   Desconocido
2:00 AM 59.0 ° F 48.2 ° F 67% 29.80 pul 5.0 mi Oeste 23.0 mph - N/A   Desconocido
3:00 AM 59.0 ° F 48.2 ° F 67% 29.77 pul 5.0 mi Oeste 31.1 mph - N/A   Desconocido
4:00 AM 58 ° F 47 ° F 59% 29.72 pul 5 mi Oeste 25.3 mph - -  
4:00 AM 57.2 ° F 48.2 ° F 72% 29.77 pul 5.0 mi Oeste 25.3 mph - N/A   Desconocido
5:00 AM 57.2 ° F 48.2 ° F 72% 29.74 pul 5.0 mi Oeste 27.6 mph - N/A   Desconocido
6:00 AM 57.2 ° F 48.2 ° F 72% 29.74 pul 5.0 mi Oeste 25.3 mph - N/A   Desconocido
7:00 AM 57 ° F 50 ° F 69% 29.72 pul 5 mi ONO 21.9 mph - -  
7:00 AM 57.2 ° F 50.0 ° F 77% 29.77 pul 5.0 mi ONO 21.9 mph - N/A   Desconocido
8:00 AM 59.0 ° F 50.0 ° F 72% 29.77 pul - ONO 21.9 mph - N/A   Despejado
9:00 AM 62.6 ° F 50.0 ° F 63% 29.77 pul - ONO 28.8 mph - N/A   Despejado
10:00 AM 68 ° F 49 ° F 39% 29.77 pul 6 mi ONO 24.2 mph - -  
10:00 AM 68.0 ° F 48.2 ° F 49% 29.80 pul - ONO 24.2 mph - N/A   Despejado
11:00 AM 71.6 ° F 46.4 ° F 41% 29.77 pul - ONO 21.9 mph - N/A   Despejado
12:00 PM 75.2 ° F 42.8 ° F 31% 29.80 pul - ONO 16.1 mph - N/A   Despejado
1:00 PM 79 ° F 42 ° F 17% 29.74 pul 6 mi Oeste 12.7 mph - -  
1:00 PM 78.8 ° F 42.8 ° F 28% 29.77 pul - Oeste 12.7 mph - N/A   Despejado
2:00 PM 82.4 ° F 41.0 ° F 23% 29.77 pul - Oeste 12.7 mph - N/A   Despejado
3:00 PM 82.4 ° F 39.2 ° F 21% 29.74 pul - Oeste 15.0 mph - N/A   Despejado
4:00 PM 84 ° F 40 ° F 12% 29.68 pul 6 mi Oeste 12.7 mph - -  
4:00 PM 84.2 ° F 39.2 ° F 20% 29.74 pul - Oeste 12.7 mph - N/A   Despejado
5:00 PM 84.2 ° F 41.0 ° F 22% 29.71 pul - OSO 20.7 mph - N/A   Despejado
6:00 PM 84.2 ° F 41.0 ° F 22% 29.71 pul - Oeste 23.0 mph - N/A   Despejado
7:00 PM 82 ° F 40 ° F 13% 29.68 pul 6 mi Oeste 23.0 mph - -  
7:00 PM 82.4 ° F 41.0 ° F 23% 29.71 pul - Oeste 23.0 mph - N/A   Despejado
8:00 PM 78.8 ° F 39.2 ° F 24% 29.74 pul - Oeste 19.6 mph - N/A   Despejado
9:00 PM 71.6 ° F 35.6 ° F 27% 29.77 pul - Oeste 24.2 mph - N/A   Despejado
10:00 PM 71 ° F 33 ° F 14% 29.74 pul 6 mi Oeste 20.7 mph - -  
11:00 PM 64.4 ° F 39.2 ° F 40% 29.80 pul - Oeste 20.7 mph - N/A   Despejado